This demonstration page uses our WeatherBlox Daily Observations layout. Learn more.

Left ArrowRight Arrow

Hourly Observations for March 31, 2016

Temp ( °F °C ) Dew Point ( °F °C ) Humidity (%) Winds ( mph kmh ) Pressure ( in mb ) Visibility ( mi km ) Precip ( " mm )
12:15 am 00:15 Cloudy 43 6 37 3 81 81 NNW 17 28 29.65 1004 10 16 0.00 0.00
12:35 am 00:35 Cloudy 43 6 37 3 81 81 NNW 20 31 29.62 1003 10 16 0.00 0.00
12:55 am 00:55 Cloudy 43 6 37 3 81 81 NNW 18 30 29.62 1003 10 16 0.00 0.00
1:15 am 01:15 Cloudy 41 5 36 2 81 81 NNW 22 35 29.62 1003 10 16 0.00 0.00
1:35 am 01:35 Cloudy 39 4 36 2 87 87 NNW 15 24 29.65 1004 10 16 0.00 0.00
1:55 am 01:55 Cloudy 39 4 36 2 87 87 NNW 21 33 29.65 1004 10 16 0.00 0.00
2:15 am 02:15 Cloudy 39 4 36 2 87 87 N 23 37 29.65 1004 10 16 0.00 0.00
2:35 am 02:35 Cloudy 39 4 36 2 87 87 N 21 33 29.68 1005 7 11 0.00 0.00
2:55 am 02:55 Cloudy 37 3 36 2 93 93 NNW 17 28 29.68 1005 5 8 0.00 0.00
3:15 am 03:15 Cloudy 37 3 36 2 93 93 NNW 17 28 29.68 1005 10 16 0.00 0.00
3:35 am 03:35 Cloudy 37 3 34 1 87 87 NW 16 26 29.68 1005 10 16 0.00 0.00
3:55 am 03:55 Cloudy 37 3 34 1 87 87 NNW 14 22 29.68 1005 8 13 0.00 0.00
4:15 am 04:15 Cloudy 37 3 34 1 87 87 NNW 10 17 29.68 1005 10 16 0.00 0.00
4:35 am 04:35 Cloudy 37 3 34 1 87 87 WNW 13 20 29.68 1005 10 16 0.01 0.25
4:55 am 04:55 Cloudy 37 3 36 2 93 93 NW 8 13 29.68 1005 10 16 0.01 0.25
5:15 am 05:15 Cloudy 37 3 36 2 93 93 WNW 10 17 29.68 1005 10 16 0.00 0.00
5:35 am 05:35 Cloudy 39 4 36 2 87 87 WNW 13 20 29.68 1005 10 16 0.00 0.00
5:55 am 05:55 Cloudy 39 4 36 2 87 87 WNW 10 17 29.68 1005 10 16 0.00 0.00
6:15 am 06:15 Cloudy 39 4 36 2 87 87 WNW 8 13 29.68 1005 10 16 0.00 0.00
6:35 am 06:35 Mostly Cloudy 37 3 34 1 87 87 WNW 7 11 29.68 1005 10 16 0.00 0.00
6:55 am 06:55 Mostly Clear 37 3 34 1 87 87 WNW 9 15 29.68 1005 10 16 0.00 0.00
7:15 am 07:15 Mostly Cloudy 37 3 34 1 87 87 WNW 12 19 29.68 1005 10 16 0.00 0.00
7:35 am 07:35 Mostly Cloudy 37 3 34 1 87 87 WNW 12 19 29.68 1005 10 16 0.00 0.00
7:55 am 07:55 Sunny 37 3 34 1 87 87 WNW 12 19 29.68 1005 10 16 0.00 0.00
8:15 am 08:15 Sunny 39 4 34 1 81 81 NW 13 20 29.68 1005 10 16 0.00 0.00
8:35 am 08:35 Partly Cloudy 39 4 36 2 87 87 NW 16 26 29.68 1005 10 16 0.00 0.00
8:55 am 08:55 Mostly Cloudy 43 6 36 2 76 76 NW 14 22 29.68 1005 10 16 0.00 0.00
9:15 am 09:15 Mostly Sunny 43 6 37 3 81 81 NW 15 24 29.68 1005 10 16 0.00 0.00
9:35 am 09:35 Sunny 45 7 37 3 76 76 NW 18 30 29.68 1005 10 16 0.00 0.00
9:55 am 09:55 Partly Cloudy 45 7 37 3 76 76 NNW 17 28 29.68 1005 10 16 0.00 0.00
10:15 am 10:15 Mostly Cloudy 45 7 37 3 76 76 NW 16 26 29.68 1005 10 16 0.00 0.00
10:35 am 10:35 Cloudy 46 8 37 3 71 71 NW 20 31 29.68 1005 10 16 0.00 0.00
10:55 am 10:55 Cloudy 46 8 37 3 71 71 NW 21 33 29.71 1006 10 16 0.00 0.00
11:15 am 11:15 Cloudy 46 8 37 3 71 71 NW 21 33 29.71 1006 10 16 0.00 0.00
11:35 am 11:35 Cloudy 46 8 36 2 66 66 NNW 16 26 29.71 1006 10 16 0.00 0.00
11:55 am 11:55 Cloudy 46 8 36 2 66 66 NW 17 28 29.71 1006 10 16 0.00 0.00
12:15 pm 12:15 Cloudy 46 8 37 3 71 71 NNW 24 39 29.74 1007 10 16 0.00 0.00
12:35 pm 12:35 Mostly Cloudy 43 6 36 2 76 76 NNW 23 37 29.74 1007 10 16 0.00 0.00
12:55 pm 12:55 Cloudy 45 7 34 1 66 66 NNW 31 50 29.74 1007 10 16 0.00 0.00
1:15 pm 13:15 Cloudy 45 7 32 0 61 61 NNW 29 46 29.77 1008 10 16 0.00 0.00
1:35 pm 13:35 Cloudy 45 7 30 -1 57 57 N 24 39 29.77 1008 10 16 0.00 0.00
1:55 pm 13:55 Cloudy 45 7 28 -2 53 53 NW 22 35 29.80 1009 10 16 0.00 0.00
2:15 pm 14:15 Cloudy 45 7 28 -2 53 53 NW 26 43 29.80 1009 10 16 0.00 0.00
2:35 pm 14:35 Cloudy 45 7 27 -3 49 49 NW 35 56 29.80 1009 10 16 0.00 0.00
2:55 pm 14:55 Mostly Cloudy 45 7 27 -3 49 49 NW 31 50 29.80 1009 10 16 0.00 0.00
3:15 pm 15:15 Mostly Cloudy 46 8 25 -4 43 43 NW 28 44 29.80 1009 10 16 0.00 0.00
3:35 pm 15:35 Cloudy 45 7 25 -4 46 46 NW 30 48 29.80 1009 10 16 0.00 0.00
3:55 pm 15:55 Mostly Cloudy 45 7 23 -5 42 42 NW 32 52 29.80 1009 10 16 0.00 0.00
4:15 pm 16:15 Mostly Cloudy 46 8 23 -5 40 40 NW 30 48 29.80 1009 10 16 0.00 0.00
4:35 pm 16:35 Mostly Cloudy 46 8 21 -6 37 37 NW 28 44 29.83 1010 10 16 0.00 0.00
4:55 pm 16:55 Mostly Cloudy 46 8 23 -5 40 40 NNW 23 37 29.83 1010 10 16 0.00 0.00
5:15 pm 17:15 Mostly Cloudy 46 8 21 -6 37 37 NW 22 35 29.83 1010 10 16 0.00 0.00
5:35 pm 17:35 Mostly Cloudy 45 7 27 -3 49 49 NNW 21 33 29.83 1010 10 16 0.00 0.00
5:55 pm 17:55 Mostly Cloudy 46 8 25 -4 43 43 NNW 28 44 29.83 1010 10 16 0.00 0.00
6:15 pm 18:15 Partly Cloudy 43 6 27 -3 53 53 NNW 20 31 29.85 1011 10 16 0.00 0.00
6:35 pm 18:35 Sunny 45 7 27 -3 49 49 NW 18 30 29.83 1010 10 16 0.00 0.00
6:55 pm 18:55 Partly Cloudy 45 7 27 -3 49 49 NNW 15 24 29.85 1011 10 16 0.00 0.00
7:15 pm 19:15 Mostly Sunny 45 7 27 -3 49 49 WNW 17 28 29.85 1011 10 16 0.00 0.00
7:35 pm 19:35 Mostly Cloudy 45 7 27 -3 49 49 WNW 14 22 29.85 1011 10 16 0.00 0.00
7:55 pm 19:55 Mostly Cloudy 43 6 27 -3 53 53 NW 13 20 29.88 1012 10 16 0.00 0.00
8:15 pm 20:15 Mostly Clear 43 6 25 -4 49 49 NW 13 20 29.88 1012 10 16 0.00 0.00
8:35 pm 20:35 Clear 39 4 27 -3 61 61 WNW 12 19 29.88 1012 10 16 0.00 0.00
8:55 pm 20:55 Clear 39 4 25 -4 56 56 WNW 9 15 29.88 1012 10 16 0.00 0.00
9:15 pm 21:15 Mostly Clear 37 3 25 -4 60 60 WNW 8 13 29.94 1014 10 16 0.00 0.00
9:35 pm 21:35 Partly Cloudy 37 3 25 -4 60 60 WNW 10 17 29.94 1014 10 16 0.00 0.00
9:55 pm 21:55 Mostly Cloudy 37 3 25 -4 60 60 NW 15 24 29.94 1014 10 16 0.00 0.00
10:15 pm 22:15 Mostly Clear 37 3 25 -4 60 60 WNW 9 15 29.94 1014 10 16 0.00 0.00
10:35 pm 22:35 Clear 37 3 25 -4 60 60 NW 15 24 29.94 1014 10 16 0.00 0.00
10:55 pm 22:55 Clear 37 3 25 -4 60 60 NW 17 28 29.94 1014 10 16 0.00 0.00
11:15 pm 23:15 Clear 37 3 25 -4 60 60 NW 22 35 29.94 1014 10 16 0.00 0.00
11:35 pm 23:35 Clear 37 3 25 -4 60 60 NW 16 26 29.97 1015 10 16 0.00 0.00
11:55 pm 23:55 Clear 36 2 25 -4 65 65 NW 20 31 29.97 1015 10 16 0.00 0.00

Powered by AerisWeather